Home > Weather > Richmond Hill > Past weeks

Flag for Canada Past Weather in Richmond Hill, Ontario, Canada — Yesterday and Last 2 Weeks

Now
75 °F

Broken clouds.


Feels Like: 77 °F
Forecast: 68 / 86 °F
Wind: 9 mph from Southeast

Location: Toronto Buttonville

Current Time: Jul 24, 2016 at 12:36:00 PM

Latest Report: Jul 24, 2016 at 12:00 PM


Visibility: 15 mi

Pressure: 30.01 "Hg

Humidity: 61%

Dew Point: 61 °F

Location of Richmond HillLocation

Past Weather in Richmond Hill — Graph

°F

Richmond Hill Temperature Yesterday

Maximum temperature yesterday: 90 °F (at 2:00 PM)
Minimum temperature yesterday: 73 °F (at 2:00 AM)
Average temperature yesterday: 81 °F

High & Low Weather Summary for the Past Weeks

 TemperatureHumidityPressure
High93 °F (Jul 13, 6:00 PM)94% (Jul 14, 2:00 AM)30.28 "Hg (Jul 14, 2:00 AM)
Low55 °F (Jul 17, 4:00 AM)24% (Jul 22, 5:45 PM)29.71 "Hg (Jul 14, 6:00 PM)
Average74 °F60%29.98 "Hg
* Reported Jul 9 11:00 AM — Jul 24 11:00 AM, Richmond Hill, Weather by CustomWeather, © 2016

Note: Actual official high and low records may vary slightly from our data, if they occured in-between our weather recording intervals... More about our weather records

Advertising

Richmond Hill Weather History for the Previous 24 Hours

Scroll right to see more
 ConditionsComfort  
Time TempWeatherWind HumidityBarometerVisibility
11:00 AM
Sun, Jul 24
75 °FPartly sunny.9 mph61%30.03 "Hg15 mi
10:00 AM73 °FOvercast.8 mph61%30.03 "Hg15 mi
9:00 AM73 °FPartly sunny.12 mph57%30.02 "Hg15 mi
8:00 AM72 °FBroken clouds.10 mph61%30.03 "Hg15 mi
7:00 AM68 °FPartly sunny.5 mph73%30.02 "Hg15 mi
6:00 AM66 °FPassing clouds.2 mph83%30.02 "Hg15 mi
5:00 AM68 °FPassing clouds.2 mph78%30.01 "Hg15 mi
4:00 AM68 °FPassing clouds.5 mph78%30.01 "Hg15 mi
3:00 AM68 °FPartly cloudy.5 mph78%30.00 "Hg15 mi
2:00 AM70 °FPassing clouds.5 mph73%30.00 "Hg15 mi
1:00 AM70 °FPassing clouds.5 mph69%30.00 "Hg15 mi
12:00 AM72 °FPassing clouds.6 mph65%29.99 "Hg15 mi
11:00 PM
Sat, Jul 23
73 °FPassing clouds.6 mph65%29.98 "Hg15 mi
10:00 PM75 °FPassing clouds.7 mph57%29.96 "Hg15 mi
9:00 PM79 °FScattered clouds.6 mph51%29.95 "Hg15 mi
8:00 PM82 °FScattered clouds.12 mph40%29.93 "Hg15 mi
7:00 PM84 °FPassing clouds.17 mph35%29.91 "Hg15 mi
6:00 PM88 °FPassing clouds.15 mph35%29.92 "Hg15 mi
5:00 PM88 °FPassing clouds.13 mph35%29.91 "Hg15 mi
4:00 PM90 °FPassing clouds.12 mph33%29.92 "Hg15 mi
3:48 PM88 °FPassing clouds.13 mph35%29.92 "Hg15 mi
3:00 PM90 °FPassing clouds.15 mph31%29.91 "Hg15 mi
2:00 PM90 °FScattered clouds.17 mph29%29.92 "Hg15 mi
1:00 PM88 °FScattered clouds.21 mph33%29.93 "Hg15 mi
12:01 PM86 °FPassing clouds.18 mph38%29.92 "Hg15 mi
Weather by CustomWeather, © 2016

See weather overviewHow to use our weather pages